Other Public Products
Issued by NWS Grand Forks, ND

Home | Current Version | Previous Version | Text Only | Print | Product List | Glossary On
Versions: 1 2 3 4 5 6 7 8 9 10 11 12 13 14 15 16 17 18 19 20 21 22 23 24 25 26 27 28 29 30 31 32 33 34 35 36 37 38 39 40 41 42 43 44 45 46 47 48 49 50
000
FPUS83 KFGF 260431
OPUFGF
PRAIRIE TO PINES WEATHER ROUNDUP
NATIONAL WEATHER SERVICE EASTERN NORTH DAKOTA/GRAND FORKS ND
1100 PM CDT WED APR 25 2018

 **SATELLITE DATA USED TO AUGMENT SKY COVER AT AUTOMATED STATIONS**
 *****  WEATHER ACROSS EASTERN NORTH DAKOTA  *****

CITY           SKY/WX    TMP DP  RH WIND       PRES   REMARKS
GRAND FORKS    MOCLDY    47  40  76 S10       29.74F
GRND FORKS AFB FAIR      51  36  56 S7        29.73F
GRND FORKS NWS   N/A     49  40  70 S7        29.71F
BUXTON           N/A     49  42  79 S7          N/A
DEVILS LAKE    FAIR      52  33  48 N28G35    29.80R
FARGO          FAIR      53  36  52 S17       29.80F
WAHPETON ARPT  FAIR      46  36  66 S15       29.85F
$$

 *****  WEATHER ACROSS CENTRAL AND WESTERN NORTH DAKOTA  *****

CITY           SKY/WX    TMP DP  RH WIND       PRES   REMARKS
JAMESTOWN      FAIR      49  32  52 S10       29.76F
BISMARCK       FAIR      55  31  39 NW8       29.82R
MINOT          FAIR      53  36  52 NW18      29.91R
MINOT AFB      FAIR      53  35  50 N16G22    29.90R
GARRISON         N/A     51  36  56 N21       29.88R
WILLISTON      FAIR      52  36  54 N16       30.02R
DICKINSON      FAIR      52  31  44 N14       29.94R
HETTINGER      FAIR      51  31  46 NW16      29.91R
$$

 *****  OTHER OBSERVATIONS NORTHEAST NORTH DAKOTA  *****

CITY           SKY/WX    TMP DP  RH WIND       PRES   REMARKS
WALHALLA       FAIR      50  32  50 N14       29.85R
LANGDON        FAIR      48  32  53 N16       29.85R
CAVALIER         N/A     52  32  46 N20G28    29.82R
GRAFTON        FAIR      50  32  50 N29G40    29.78S HAZE
CANDO          CLOUDY    50  32  50 N18G26    29.87R
FORT TOTTEN      N/A     50  32  49 NE7       29.95S
ROLLA          FAIR      46  30  53 N20       29.90R
RUGBY          FAIR      48  32  53 N16G22    29.86R
 ***** THE ABOVE OBSERVATIONS ARE NON NWS ARE NOT QUALITY
        CONTROLLED AND MAY MIS-REPORT RAIN FOR SNOW...
$$

 *****  OTHER OBSERVATIONS SOUTHEAST NORTH DAKOTA *****

CITY           SKY/WX    TMP DP  RH WIND       PRES   REMARKS
COOPERSTOWN    FAIR      46  37  71 SW10      29.76F
VALLEY CITY    FAIR      50  36  57 S21       29.78F
OAKES            N/A     50  36  57 S20       29.81F
GWINNER          N/A     48  37  66 SW20      29.81F
SHEYENNE NWR     N/A     48  37  66 S7        29.95S
BUFFALO          N/A     50  32  49 SW14        N/A
WYNDMERE       NOT AVBL
 ***** THE ABOVE OBSERVATIONS ARE NON NWS ARE NOT QUALITY
       CONTROLLED AND MAY MIS-REPORT RAIN FOR SNOW...
$$

  *****  WEATHER ACROSS NORTHERN MINNESOTA  *****

CITY           SKY/WX    TMP DP  RH WIND       PRES   REMARKS
FLAG ISLAND    MOCLDY    41  32  70 SW8       29.72F
WARROAD        FAIR      50  37  62 S9        29.73F
ROSEAU         FAIR      52  39  62 S14       29.73F
HALLOCK        FAIR      52  32  46 N25G31    29.78R
THF RVR FALLS  FAIR      49  35  58 S14       29.78F
HALSTAD        NOT AVBL
FOSSTON        FAIR      45  32  61 S15       29.80F
BAUDETTE       FAIR      49  33  54 S8        29.76F
WASKISH        FAIR      50  30  46 S10       29.79F
CROOKSTON      FAIR      52  37  58 S16       29.76F
$$
  *****  WEATHER ACROSS CENTRAL AND WEST MINNESOTA  *****

CITY           SKY/WX    TMP DP  RH WIND       PRES   REMARKS
BEMIDJI        FAIR      46  29  50 S8        29.82F
PARK RAPIDS    FAIR      46  30  53 S9        29.86F
WADENA         FAIR      43  32  65 S7        29.87F
DETROIT LAKES  FAIR      50  32  50 S12G17    29.84F
MOORHEAD       FAIR      52  36  54 S16       29.82F
FERGUS FALLS   FAIR      46  36  66 S13       29.85F
ELBOW LAKE     FAIR      43  37  78 S10       29.90F
MORRIS MN      FAIR      43  37  81 S7        29.90F
STAPLES        FAIR      43  30  61 S7        29.89F
WHEATON        FAIR      48  34  57 S12       29.90F
$$
  *****  WEATHER ELSEWHERE ACROSS MINNESOTA  *****

CITY           SKY/WX    TMP DP  RH WIND       PRES   REMARKS
DULUTH         FAIR      47  18  31 SW7       29.90F
INTRNTL FALLS  FAIR      47  27  45 S6        29.80F
ELY            FAIR      46  23  39 SW3       29.86F
CLOQUET        FAIR      45  10  24 SW3       29.91F
BRAINERD       FAIR      46  27  47 S7        29.91F
HIBBING        FAIR      43  23  45 SW3       29.88F
ALEXANDRIA     FAIR      49  33  54 S10       29.92F
SAINT CLOUD    FAIR      43  33  68 S7        29.94F
MINNEAPOLIS    CLOUDY    52  33  48 SW3       29.97F
$$

  *****  WEATHER ACROSS SOUTH DAKOTA  *****

CITY           SKY/WX    TMP DP  RH WIND       PRES   REMARKS
SIOUX FALLS    CLOUDY    50  30  46 S5        29.96F
BROOKINGS      FAIR      47  35  63 S10       29.94F
WATERTOWN      FAIR      43  35  73 S10       29.90F
HURON          FAIR      49  36  61 S13       29.90F
SISSETON         N/A     49  36  61 SE12      29.87F
ABERDEEN       FAIR      47  37  68 S12       29.87F
MITCHELL       FAIR      49  38  65 S12       29.94F
PIERRE         FAIR      52  32  46 SE9       29.85F
MOBRIDGE       FAIR      50  34  54 S8        29.81S
RAPID CITY     FAIR      53  33  46 N17       29.94R
$$

  *****  SOME WEATHER IN NEARBY STATES *****

CITY           SKY/WX    TMP DP  RH WIND       PRES   REMARKS
GLASGOW MT     FAIR      49  30  48 N8        30.09R
GREAT FALLS MT FAIR      38  32  79 S10       30.23R
CHEYENNE WY    FAIR      50  22  33 SW13      30.05R
SCOTTSBLUFF NE FAIR      49  34  56 E8        29.92F
OMAHA NE       FAIR      50  34  54 CALM      30.01F
DES MOINES IA  FAIR      54  31  41 NE6       30.00F
DAVENPORT IA   FAIR      50  28  42 NE5       30.00F
CHICAGO IL     FAIR      40  28  62 CALM      30.01F
EAU CLAIRE WI  FAIR      40  25  55 CALM      29.96F
LA CROSSE WI   FAIR      46  31  55 CALM      29.98F
$$

  *****  SOME NATIONAL WEATHER *****

CITY           SKY/WX    TMP DP  RH WIND       PRES   REMARKS
LA GUARDIA NY  FOG       54  52  93 E6        29.64F VSB 3/4
RALEIGH NC     FAIR      55  55 100 CALM      29.82S
ATLANTA GA     FAIR      57  50  77 NW7       29.92S
NEW ORLEANS LA FAIR      70  63  78 SW8       29.94F
OKLAHOMA CITY  FAIR      47  41  80 N7        30.09F
ALBUQUERQUE NM FAIR      61  28  28 SE7       30.11S
SALT LAKE CITY FAIR      59  36  42 SW5       30.09R
LOS ANGELES CA MOCLDY    58  53  84 W10       30.03S
BOISE ID       FAIR      64  34  32 E5        30.09R
SEATTLE WA     FAIR      62  42  47 N9        30.05R
$$

*** WEATHER ACROSS MANITOBA...SASKATCHEWAN AND ONTARIO ***
                ***ONTARIO***

CITY           SKY/WX    TMP DP  RH WIND       PRES   REMARKS
GERALDTON      CLOUDY    36  25  64 SW7       29.81F
THUNDER BAY    MOCLDY    30  27  86 E2        29.88F
SIOUX LOOKOUT  MOCLDY    46  28  49 SW7       29.73F
TORONTO        LGT RAIN  39  36  87 NW17G25   29.79S
BIG TROUT LK   CLOUDY    36  32  87 N13G22    29.74R
PICKLE LAKE    NOT AVBL
DRYDEN         CLEAR     48  30  49 SW12      29.73F
KENORA         CLOUDY    48  32  53 SW10      29.72F
$$
                *** MANITOBA***

CITY           SKY/WX    TMP DP  RH WIND       PRES   REMARKS
BRANDON        PTCLDY    43  30  61 N8        29.93R
DAUPHIN        CLEAR     36  27  69 NW7       29.96R
ISLAND LAKE    FLURRIES  32  28  86 N18G25    29.90R WCI  20
PILOT MOUND      N/A     48  28  46 N15         N/A
THE PAS        CLEAR     37  27  65 N6        30.01R
THOMPSON       MOCLDY    28  19  69 NE8       30.02R WCI  20
WINNIPEG       MOCLDY    48  32  53 N13G18    29.83R
LYNN LAKE      CLEAR     27  23  86 NE3       30.02S
CHURCHILL      PTCLDY    10   7  85 N13       30.10S WCI  -5
GILLAM         FLURRIES  18  10  73 N16       30.05R WCI   3
$$
                ***SASKATCHEWAN***

CITY           SKY/WX    TMP DP  RH WIND       PRES   REMARKS
ESTEVAN        PTCLDY    41  28  60 N9        30.00R
KINDERSLEY     CLEAR     45  30  57 W9        30.11R
LLOYDMINSTER   PTCLDY    41  27  56 W10       30.05S
PRINCE ALBERT  PTCLDY    37  27  65 W3        30.05R
REGINA         CLEAR     41  25  52 NW8       30.05R
YORKTON        CLEAR     43  27  52 NW10      29.99R



USA.gov is the U.S. government's official web portal to all federal, state and local government web resources and services.